[[{"header":{"parameterUnit":"m.s-1","parameterCategory":1,"la1":30.2991,"la2":30.254,"lo1":-89.0895,"lo2":-89.0444,"dy":0.0017,"dx":0.0017,"nx":28,"ny":28,"refTime":"2023-10-31T21:00:00:Z","depth":0,"parameterNumber":2,"parameterNumberName":"U-component_of_WINDS"},"data":[0,0,0,0,0,0,0,0,0,0,0,0,0,0,0,0,0,0,0,0,0,0,0,0,0,0,0,0,0,0,0,0,0,0,0,0,0,0,0,0,0,0,0,0,0,0,0,0,0,0,0,0,0,0,0,0,0,0,-1.4173,-1.4173,0,-1.4193,-1.4193,-1.4193,-1.4169,-1.4168,-1.4167,-1.4166,-1.4186,-1.4188,-1.4189,0,0,0,0,0,0,0,0,0,0,0,0,0,-1.4112,-1.4113,-1.4173,-1.4173,-1.4173,-1.4193,-1.4193,-1.4193,-1.4169,-1.4168,-1.4167,-1.4166,-1.4186,-1.4187,-1.4189,0,0,0,0,0,0,0,0,0,0,0,0,0,-1.4136,-1.4114,-1.4173,-1.4163,-1.4163,-1.4193,-1.4193,-1.4193,-1.4169,-1.4168,-1.4166,-1.4165,-1.4185,-1.4187,-1.4189,-1.4229,0,0,-1.4196,-1.4197,0,0,0,0,0,0,0,0,-1.4135,-1.4138,-1.4164,-1.4164,-1.4163,-1.4177,-1.4179,-1.4206,-1.4169,-1.4167,-1.4166,-1.4164,-1.4184,-1.4186,-1.4193,-1.423,-1.4231,-1.4196,-1.4197,-1.4198,-1.4199,0,0,0,0,0,0,0,-1.4133,-1.4137,-1.4181,-1.4165,-1.4164,-1.4158,-1.416,-1.4184,-1.4183,-1.4167,-1.4165,-1.4168,-1.4184,-1.4191,-1.4193,-1.4232,-1.4196,-1.4198,-1.4199,-1.42,-1.4302,-1.4304,0,0,0,0,0,0,-1.4132,-1.4136,-1.418,-1.4181,-1.4145,-1.416,-1.4162,-1.4174,-1.4182,-1.4182,-1.4169,-1.4167,-1.4188,-1.4191,-1.4194,-1.4242,-1.4198,-1.42,-1.4201,-1.4301,-1.4303,-1.4304,0,0,0,0,0,0,-1.4131,-1.4137,-1.4179,-1.4158,-1.4163,-1.4162,-1.4176,-1.4175,-1.4182,-1.4184,-1.4184,-1.4177,-1.4187,-1.4191,-1.4221,-1.4242,-1.4201,-1.4203,-1.4299,-1.4301,-1.4303,-1.4337,0,0,0,0,0,0,-1.413,-1.4136,-1.4152,-1.4159,-1.4164,-1.4206,-1.4177,-1.4176,-1.4186,-1.4183,-1.4191,-1.4191,-1.4186,-1.4218,-1.4223,-1.4244,-1.4204,-1.4297,-1.43,-1.4303,-1.4334,-1.434,-1.4345,0,0,0,0,0,-1.4128,-1.416,-1.4153,-1.4158,-1.4184,-1.4207,-1.4211,-1.4204,-1.4188,-1.4203,-1.4204,-1.4191,-1.4239,-1.4221,-1.4227,-1.4249,-1.4296,-1.4299,-1.4303,-1.4332,-1.4339,-1.4345,0,0,0,0,0,0,-1.4156,-1.4161,-1.4153,-1.4189,-1.4198,-1.4203,-1.4223,-1.4212,-1.4226,-1.4223,-1.4214,-1.4216,-1.4248,-1.4251,-1.4231,-1.4288,-1.4265,-1.4269,-1.4285,-1.4292,-1.4297,-1.4296,-1.4206,0,0,0,0,0,-1.4167,-1.4186,-1.4189,-1.4221,-1.4225,-1.4223,-1.4233,-1.4228,-1.4237,-1.424,-1.4243,-1.4252,-1.4269,-1.428,-1.4296,-1.4334,-1.4335,-1.4352,-1.4357,-1.4362,-1.4366,-1.4387,-1.4394,-1.4315,-1.4315,-1.4315,0,0,-1.4189,-1.4194,-1.4206,-1.4227,-1.4233,-1.4252,-1.4227,-1.4249,-1.4263,-1.4243,-1.4272,-1.4274,-1.4284,-1.4318,-1.4333,-1.4321,-1.4388,-1.4366,-1.437,-1.4372,-1.4391,-1.4398,-1.4405,-1.4317,-1.4317,-1.4317,0,0,-1.4239,-1.4245,-1.4272,-1.4279,-1.4288,-1.4287,-1.4293,-1.43,-1.4301,-1.4329,-1.4314,-1.4331,-1.436,-1.4368,-1.4375,-1.4427,-1.4416,-1.4432,-1.4462,-1.4482,-1.4488,-1.4494,-1.4513,-1.452,-1.4437,-1.4437,-1.4437,0,-1.4266,-1.4295,-1.4287,-1.431,-1.4319,-1.4302,-1.4329,-1.4336,-1.435,-1.4357,-1.4344,-1.438,-1.4385,-1.442,-1.4433,-1.4439,-1.4446,-1.4432,-1.4488,-1.4493,-1.4498,-1.4516,-1.4523,-1.4439,-1.4438,-1.4438,-1.4438,0,-1.4327,-1.4347,-1.4368,-1.4382,-1.4393,-1.4418,-1.4414,-1.4426,-1.4419,-1.4419,-1.4447,-1.4453,-1.4469,-1.4477,-1.447,-1.4511,-1.4504,-1.4489,-1.4466,-1.4508,-1.4525,-1.4532,-1.4442,-1.4441,-1.444,-1.444,0,0,-1.4397,-1.4406,-1.4414,-1.442,-1.4429,-1.4445,-1.4468,-1.4484,-1.4495,-1.4505,-1.4525,-1.455,-1.4536,-1.4545,-1.4539,-1.4556,-1.4597,-1.4539,-1.4539,-1.455,-1.4643,-1.4654,-1.4662,-1.4589,-1.459,-1.4591,-1.4642,0,-1.4448,-1.449,-1.4483,-1.4523,-1.4542,-1.4525,-1.4546,-1.4553,-1.4553,-1.4569,-1.4568,-1.4586,-1.4567,-1.4572,-1.4588,-1.4589,-1.4616,-1.4585,-1.4608,-1.4608,-1.4607,-1.4671,-1.4683,-1.4731,-1.4649,-1.465,-1.4651,0,-1.4513,-1.4526,-1.4568,-1.4574,-1.4581,-1.46,-1.4614,-1.4629,-1.4637,-1.4636,-1.4645,-1.4635,-1.4658,-1.4634,-1.4666,-1.4645,-1.4654,-1.4655,-1.4657,-1.466,-1.4633,-1.4676,-1.4746,-1.4753,-1.4661,-1.466,-1.4659,0,-1.4561,-1.4588,-1.4617,-1.4623,-1.463,-1.4643,-1.4647,-1.4654,-1.4664,-1.4675,-1.4682,-1.4696,-1.4704,-1.4715,-1.4709,-1.4692,-1.4743,-1.4718,-1.4742,-1.4742,-1.4754,-1.4754,-1.4828,-1.4759,-1.4759,-1.4758,-1.4758,0,-1.4619,-1.4645,-1.4638,-1.4656,-1.4685,-1.4677,-1.4706,-1.4707,-1.4713,-1.4731,-1.4717,-1.4733,-1.4724,-1.474,-1.4736,-1.4763,-1.4767,-1.4766,-1.4765,-1.4768,-1.4768,-1.4774,-1.4771,-1.476,-1.476,-1.476,-1.4759,0,-1.4677,-1.4674,-1.4704,-1.4708,-1.471,-1.4731,-1.4735,-1.4751,-1.4749,-1.4772,-1.4776,-1.4774,-1.4792,-1.4787,-1.4806,-1.4803,-1.4838,-1.4832,-1.4835,-1.4834,-1.4859,-1.4857,-1.494,-1.495,-1.4874,-1.4875,-1.4876,0,-1.4715,-1.4735,-1.4741,-1.4752,-1.4757,-1.4775,-1.4784,-1.4776,-1.4787,-1.4797,-1.4813,-1.4829,-1.4842,-1.4871,-1.4871,-1.4886,-1.4881,-1.4908,-1.4883,-1.4885,-1.4882,-1.4881,-1.4883,-1.4914,-1.4915,-1.4916,-1.4916,0,-1.4782,-1.478,-1.4795,-1.4809,-1.4821,-1.4832,-1.4841,-1.4851,-1.4843,-1.4856,-1.4874,-1.4885,-1.4904,-1.4921,-1.4934,-1.4937,-1.4926,-1.4924,-1.4931,-1.4934,-1.4936,-1.4936,-1.485,-1.4923,-1.4922,-1.4921,-1.4921,-1.4921,-1.4832,-1.4849,-1.4856,-1.4873,-1.4879,-1.4889,-1.4904,-1.4904,-1.4919,-1.4935,-1.4929,-1.495,-1.4956,-1.4973,-1.4978,-1.4994,-1.4983,-1.4993,-1.4995,-1.4998,-1.5001,-1.4933,-1.4996,-1.4996,-1.4996,-1.4996,-1.4995,0,-1.4899,-1.4903,-1.4919,-1.4932,-1.4946,-1.4933,-1.4943,-1.4955,-1.4973,-1.498,-1.4993,-1.5014,-1.503,-1.5031,-1.5045,-1.5058,-1.5053,-1.5062,-1.5062,-1.5063,-1.501,-1.5003,-1.5066,-1.5066,-1.5066,-1.5066,-1.5066,-1.5066,-1.4936,-1.4964,-1.4962,-1.4993,-1.4996,-1.5016,-1.5023,-1.5031,-1.5037,-1.5061,-1.5074,-1.5074,-1.5079,-1.5093,-1.5107,-1.5107,-1.5113,-1.5125,-1.5122,-1.5073,-1.5066,-1.506,-1.5053,-1.5126,-1.5126,-1.5174,-1.5175,-1.5175]},{"header":{"parameterUnit":"m.s-1","parameterCategory":1,"la1":30.2991,"la2":30.254,"lo1":-89.0895,"lo2":-89.0444,"dy":0.0017,"dx":0.0017,"nx":28,"ny":28,"refTime":"2023-10-31T21:00:00:Z","depth":0,"parameterNumber":3,"parameterNumberName":"V-component_of_WINDS"},"data":[0,0,0,0,0,0,0,0,0,0,0,0,0,0,0,0,0,0,0,0,0,0,0,0,0,0,0,0,0,0,0,0,0,0,0,0,0,0,0,0,0,0,0,0,0,0,0,0,0,0,0,0,0,0,0,0,0,0,-7.2596,-7.2597,0,-7.2677,-7.2678,-7.2679,-7.2633,-7.2631,-7.2629,-7.2627,-7.2703,-7.2707,-7.2711,0,0,0,0,0,0,0,0,0,0,0,0,0,-7.2397,-7.2401,-7.2596,-7.2597,-7.2598,-7.2677,-7.2678,-7.2679,-7.2634,-7.2631,-7.2628,-7.2626,-7.2702,-7.2707,-7.2712,0,0,0,0,0,0,0,0,0,0,0,0,0,-7.2481,-7.2402,-7.2596,-7.2585,-7.2585,-7.2677,-7.2678,-7.268,-7.2634,-7.2631,-7.2627,-7.2624,-7.27,-7.2706,-7.2713,-7.2818,0,0,-7.2731,-7.2734,0,0,0,0,0,0,0,0,-7.2476,-7.2488,-7.2586,-7.2586,-7.2586,-7.2642,-7.2636,-7.2726,-7.2635,-7.2615,-7.2627,-7.2623,-7.2685,-7.2692,-7.2715,-7.2822,-7.2825,-7.2732,-7.2736,-7.2738,-7.274,0,0,0,0,0,0,0,-7.2471,-7.2485,-7.2628,-7.2587,-7.2587,-7.2574,-7.2583,-7.2653,-7.2668,-7.2617,-7.2614,-7.2624,-7.2685,-7.2709,-7.2716,-7.2826,-7.2732,-7.2737,-7.2741,-7.2744,-7.3024,-7.3028,0,0,0,0,0,0,-7.2466,-7.248,-7.2625,-7.263,-7.2522,-7.2581,-7.259,-7.2627,-7.2667,-7.267,-7.2627,-7.2622,-7.27,-7.2709,-7.2719,-7.2846,-7.2738,-7.2744,-7.2748,-7.3021,-7.3025,-7.3029,0,0,0,0,0,0,-7.2462,-7.248,-7.2622,-7.2555,-7.2572,-7.2588,-7.263,-7.2631,-7.2655,-7.2675,-7.2677,-7.265,-7.2698,-7.271,-7.2794,-7.2848,-7.2747,-7.2753,-7.3016,-7.3022,-7.3027,-7.3101,0,0,0,0,0,0,-7.2457,-7.2478,-7.252,-7.2556,-7.2576,-7.2698,-7.2633,-7.2635,-7.2666,-7.266,-7.2696,-7.2699,-7.2696,-7.2785,-7.2801,-7.2855,-7.2757,-7.3012,-7.3019,-7.3026,-7.3094,-7.3108,-7.3121,0,0,0,0,0,-7.245,-7.2535,-7.2522,-7.254,-7.2628,-7.2701,-7.2712,-7.2709,-7.2671,-7.2712,-7.2725,-7.2698,-7.284,-7.2794,-7.2811,-7.2868,-7.3008,-7.3017,-7.3025,-7.3088,-7.3105,-7.312,0,0,0,0,0,0,-7.2502,-7.254,-7.2525,-7.2626,-7.2661,-7.2694,-7.2745,-7.2728,-7.2773,-7.2765,-7.2756,-7.2765,-7.2853,-7.2869,-7.2818,-7.2973,-7.2918,-7.293,-7.296,-7.2977,-7.299,-7.2985,-7.2763,0,0,0,0,0,-7.2526,-7.2585,-7.2613,-7.2699,-7.2718,-7.2729,-7.2761,-7.2755,-7.279,-7.2804,-7.2823,-7.2857,-7.2909,-7.2943,-7.2992,-7.3095,-7.3103,-7.3143,-7.3156,-7.3167,-7.3178,-7.3235,-7.3253,-7.3057,-7.3057,-7.3057,0,0,-7.2575,-7.2603,-7.264,-7.2711,-7.2737,-7.2797,-7.2741,-7.2806,-7.285,-7.2813,-7.2895,-7.2911,-7.2947,-7.3042,-7.3085,-7.3058,-7.3234,-7.3178,-7.3187,-7.3191,-7.3245,-7.3264,-7.328,-7.3063,-7.3062,-7.3061,0,0,-7.2695,-7.2722,-7.2797,-7.2826,-7.2868,-7.2875,-7.2893,-7.2929,-7.2938,-7.3021,-7.2995,-7.3046,-7.3136,-7.3164,-7.319,-7.3322,-7.3299,-7.3338,-7.3409,-7.3464,-7.348,-7.3493,-7.3541,-7.3559,-7.3349,-7.3349,-7.3349,0,-7.275,-7.284,-7.2837,-7.2906,-7.2937,-7.291,-7.2986,-7.3013,-7.3068,-7.309,-7.3059,-7.3173,-7.3195,-7.3297,-7.333,-7.3351,-7.3371,-7.3334,-7.3478,-7.3492,-7.3504,-7.355,-7.3568,-7.3353,-7.3353,-7.3352,-7.3352,0,-7.2906,-7.297,-7.3025,-7.3082,-7.312,-7.3192,-7.3198,-7.3237,-7.3228,-7.3238,-7.3323,-7.3349,-7.3404,-7.3427,-7.3418,-7.3528,-7.351,-7.3479,-7.3424,-7.3528,-7.3571,-7.3588,-7.336,-7.3358,-7.3357,-7.3356,0,0,-7.3061,-7.3118,-7.3138,-7.3164,-7.321,-7.3257,-7.3327,-7.3383,-7.3417,-7.3456,-7.3514,-7.3592,-7.3564,-7.3593,-7.3587,-7.3636,-7.3741,-7.3599,-7.3599,-7.3625,-7.3864,-7.3888,-7.3908,-7.3726,-7.3729,-7.3731,-7.3861,0,-7.3185,-7.331,-7.331,-7.3425,-7.3483,-7.3459,-7.3519,-7.3553,-7.3564,-7.3614,-7.3625,-7.3681,-7.364,-7.3658,-7.3705,-7.3718,-7.3788,-7.3708,-7.3779,-7.3781,-7.3772,-7.393,-7.3956,-7.4077,-7.3878,-7.3881,-7.3883,0,-7.3345,-7.3393,-7.3515,-7.3554,-7.3578,-7.3633,-7.3685,-7.3734,-7.3771,-7.3776,-7.381,-7.3797,-7.3867,-7.381,-7.3906,-7.3852,-7.388,-7.3891,-7.3896,-7.3903,-7.3839,-7.3942,-7.4115,-7.4134,-7.3909,-7.3907,-7.3905,0,-7.3448,-7.3542,-7.3628,-7.365,-7.3697,-7.3737,-7.3758,-7.3792,-7.3826,-7.3871,-7.3893,-7.3944,-7.3972,-7.4012,-7.4012,-7.3971,-7.411,-7.4052,-7.4115,-7.4116,-7.4146,-7.4144,-7.4327,-7.4163,-7.4163,-7.4163,-7.4162,0,-7.3586,-7.3662,-7.3675,-7.3727,-7.3811,-7.381,-7.3892,-7.3909,-7.394,-7.3995,-7.3975,-7.4026,-7.4024,-7.4075,-7.4076,-7.4156,-7.4168,-7.4173,-7.4173,-7.4176,-7.4175,-7.4195,-7.4187,-7.4168,-7.4167,-7.4166,-7.4165,0,-7.3715,-7.3726,-7.3818,-7.3856,-7.3867,-7.3927,-7.3959,-7.4008,-7.4018,-7.4087,-7.4103,-7.4119,-7.4178,-7.4183,-7.4251,-7.4252,-7.4349,-7.4339,-7.4338,-7.4336,-7.4399,-7.4394,-7.4601,-7.4629,-7.4447,-7.4449,-7.445,0,-7.3803,-7.3861,-7.3906,-7.3943,-7.3967,-7.4025,-7.4061,-7.4062,-7.4099,-7.4147,-7.4191,-7.425,-7.4297,-7.4393,-7.4409,-7.4461,-7.4452,-7.4522,-7.446,-7.4462,-7.4455,-7.4452,-7.4458,-7.4534,-7.4536,-7.4537,-7.4539,0,-7.3959,-7.3962,-7.4016,-7.4072,-7.4116,-7.416,-7.42,-7.423,-7.4236,-7.4279,-7.4342,-7.4378,-7.445,-7.4508,-7.456,-7.4579,-7.456,-7.4558,-7.4576,-7.458,-7.4577,-7.458,-7.4372,-7.4553,-7.4552,-7.4551,-7.455,-7.4549,-7.407,-7.4122,-7.4162,-7.4223,-7.4254,-7.4293,-7.4342,-7.436,-7.4413,-7.4473,-7.4469,-7.4539,-7.4575,-7.4643,-7.4666,-7.4719,-7.4696,-7.4721,-7.4727,-7.4734,-7.4741,-7.4568,-7.4728,-7.4728,-7.4727,-7.4727,-7.4727,0,-7.4226,-7.4252,-7.4308,-7.4367,-7.4415,-7.4395,-7.4439,-7.448,-7.4542,-7.4579,-7.4626,-7.4698,-7.4755,-7.4776,-7.4831,-7.487,-7.4863,-7.4884,-7.4882,-7.4887,-7.4758,-7.4738,-7.4889,-7.4889,-7.4889,-7.4889,-7.4889,-7.4889,-7.4313,-7.4399,-7.4408,-7.4509,-7.4533,-7.4603,-7.463,-7.4666,-7.4695,-7.4778,-7.4826,-7.4841,-7.4871,-7.4928,-7.4979,-7.4984,-7.5005,-7.5031,-7.5032,-7.4912,-7.4895,-7.488,-7.4861,-7.5036,-7.5036,-7.5156,-7.5157,-7.5158]}]]